Location: Berg
(47.2344°N, 9.5296°E)
Time: 15:27:16
(UTC+00:00)

Tiangong - Visible Passes

Search period start: 20 September 2021 00:00
Search period end: 30 September 2021 00:00
Orbit: 380 x 386 km, 41.5° (Epoch: 18 September)

Date Brightness Start Highest point End Pass type
(mag) Time Alt. Az. Time Alt. Az. Time Alt. Az.
27 Sep 3.4 04:32:17 10° SSW 04:34:29 18° SSE 04:36:42 10° ESE visible
28 Sep 3.6 03:33:10 12° S 03:33:49 13° SSE 03:35:20 10° SE visible
29 Sep 2.9 04:07:20 14° SSW 04:09:09 22° SSE 04:11:40 10° ESE visible
